Tracking 18980 objects as of 19-Feb-2018
HD Live streaming from Space Station
objects crossing your sky now

WESTFORD NEEDLES

Track WESTFORD NEEDLES now!
10-day predictions
WESTFORD NEEDLES is classified as:


NORAD ID: 3239
Int'l Code: 1963-014BD
Perigee: 3,620.1 km
Apogee: 3,681.4 km
Inclination: 87.3 °
Period: 166.4 minutes
Semi major axis: 10021 km
RCS: 0.1183 m2 (medium)
Launch date: May 9, 1963
Source: United States (US)
Launch site: AIR FORCE WESTERN TEST RANGE (AFWTR)
aabbcc
Your satellite tracking list
Your tracking list is empty




NASA's NSSDC Master Catalog

Two Line Element Set (TLE):
1  3239U 63014BD  18049.25375278 +.00000009 +00000-0 +28584-2 0  9990
2  3239 087.3299 124.7401 0030597 315.9026 043.9389 08.65345264730825
Source of the keplerian elements: AFSPC